Brownwood, TX

9:42 AM CST on November 24, 2017 (GMT -0600)
Brownwood Regional

Weather History for KBWD - April, 2014

Change the Weather History Date:

Monday, April 7, 2014

  Actual Average (KABI) Record (KABI)
Temperature  
Mean Temperature 52 °F -  
Max Temperature 64 °F 71 °F 97 °F (1893)
Min Temperature 41 °F 47 °F 28 °F (1938)
Degree Days  
Heating Degree Days 12    
Growing Degree Days 2 (Base 50)    
Moisture  
Dew Point 47 °F    
Average Humidity 86    
Maximum Humidity 100    
Minimum Humidity 49    
Precipitation  
Precipitation 0.47 in - - ()
Sea Level Pressure  
Sea Level Pressure 29.92 in    
Wind  
Wind Speed 4 mph (WNW)    
Max Wind Speed 33 mph    
Max Gust Speed 41 mph    
Visibility 8 miles    
Events Fog , Rain , Thunderstorm    
Averages and records for this station are not official NWS values.
T = Trace of Precipitation, MM = Missing Value Source: NWS Daily Summary

Daily Weather History Graph

Daily Weather History Graph

Search for Another Location

Airport or City:

Trip Planner

Search our weather history database for the weather conditions in past years. The results will help you decide how hot, cold, wet, or windy it might be!

Date:

Astronomy

Apr. 07, 2014 Rise Set
Actual Time 7:16 AM CDT 7:59 PM CDT
Civil Twilight 6:52 AM CDT 8:24 PM CDT
Nautical Twilight 6:22 AM CDT 8:53 PM CDT
Astronomical Twilight 5:53 AM CDT 9:23 PM CDT
Moon 1:23 PM CDT (4/7) 2:28 AM CDT (4/7)
Length of Visible Light 13h 32m
Length of Day
12h 42m
First Quarter, 53% of the Moon is Illuminated
Apr 7
First Quarter
Apr 15
Full
Apr 22
Last Quarter
Apr 29
New
May 6
First Quarter

Hourly Weather History & Observations

Time (CDT) Temp. Windchill Dew Point Humidity Pressure Visibility Wind Dir Wind Speed Gust Speed Precip Events Conditions
12:15 AM 48.2 °F - 46.4 °F 93% 29.81 in 10.0 mi Calm Calm - N/A   Overcast
12:35 AM 46.4 °F 44.3 °F 46.4 °F 100% 29.79 in 10.0 mi SSE 4.6 mph - N/A   Scattered Clouds
12:55 AM 46.4 °F 45.2 °F 46.4 °F 100% 29.80 in 10.0 mi West 3.5 mph - N/A   Scattered Clouds
1:15 AM 46.4 °F - 44.6 °F 93% 29.81 in 9.0 mi Calm Calm - N/A   Mostly Cloudy
1:35 AM 44.6 °F 42.2 °F 44.6 °F 100% 29.81 in 8.0 mi South 4.6 mph - N/A   Overcast
1:55 AM 44.6 °F - 44.6 °F 100% 29.81 in 7.0 mi Calm Calm - N/A   Overcast
2:15 AM 44.6 °F 43.1 °F 44.6 °F 100% 29.81 in 3.0 mi SE 3.5 mph - N/A   Overcast
2:35 AM 44.6 °F - 44.6 °F 100% 29.82 in 6.0 mi Calm Calm - N/A   Overcast
2:55 AM 42.8 °F - 42.8 °F 100% 29.83 in 4.0 mi Calm Calm - N/A   Overcast
3:15 AM 42.8 °F 41.1 °F 42.8 °F 100% 29.83 in 10.0 mi NNW 3.5 mph - N/A   Overcast
3:35 AM 42.8 °F - 42.8 °F 100% 29.84 in 7.0 mi Calm Calm - N/A   Overcast
3:55 AM 42.8 °F 40.1 °F 42.8 °F 100% 29.84 in 8.0 mi NNE 4.6 mph - N/A   Overcast
4:15 AM 42.8 °F 39.3 °F 42.8 °F 100% 29.84 in 6.0 mi NNE 5.8 mph - N/A   Mostly Cloudy
4:55 AM 41.0 °F 39.0 °F 41.0 °F 100% 29.85 in 5.0 mi ENE 3.5 mph - N/A   Overcast
5:15 AM 41.0 °F 38.0 °F 41.0 °F 100% 29.86 in 5.0 mi East 4.6 mph - N/A   Overcast
5:35 AM 41.0 °F 37.1 °F 41.0 °F 100% 29.86 in 7.0 mi NNW 5.8 mph - N/A   Overcast
5:55 AM 41.0 °F 38.0 °F 41.0 °F 100% 29.85 in 7.0 mi NNW 4.6 mph - N/A   Overcast
6:15 AM 41.0 °F - 41.0 °F 100% 29.85 in 6.0 mi Calm Calm - N/A   Scattered Clouds
6:35 AM 41.0 °F - 41.0 °F 100% 29.87 in 4.0 mi Calm Calm - N/A   Mostly Cloudy
6:55 AM 42.8 °F 40.1 °F 42.8 °F 100% 29.88 in 4.0 mi SSW 4.6 mph - N/A   Overcast
7:15 AM 44.6 °F 42.2 °F 44.6 °F 100% 29.87 in 0.5 mi NNW 4.6 mph - N/A Fog Fog
7:35 AM 46.4 °F 42.4 °F 46.4 °F 100% 29.86 in 0.2 mi North 8.1 mph - N/A Fog Fog
7:55 AM 46.4 °F 44.3 °F 46.4 °F 100% 29.88 in 1.2 mi ENE 4.6 mph - N/A   Overcast
8:15 AM 46.4 °F 45.2 °F 46.4 °F 100% 29.89 in 3.0 mi NE 3.5 mph - N/A   Overcast
8:35 AM 48.2 °F - 48.2 °F 100% 29.90 in 5.0 mi Calm Calm - N/A   Mostly Cloudy
8:55 AM 48.2 °F - 48.2 °F 100% 29.91 in 8.0 mi SE 4.6 mph - N/A   Overcast
9:15 AM 50.0 °F - 48.2 °F 94% 29.92 in 8.0 mi SSW 4.6 mph - N/A   Mostly Cloudy
9:35 AM 48.2 °F - 48.2 °F 100% 29.92 in 6.0 mi South 4.6 mph - N/A   Mostly Cloudy
9:55 AM 48.2 °F - 48.2 °F 100% 29.93 in 6.0 mi South 6.9 mph - N/A   Overcast
10:15 AM 50.0 °F - 48.2 °F 94% 29.95 in 7.0 mi South 8.1 mph - N/A   Mostly Cloudy
10:35 AM 50.0 °F - 48.2 °F 94% 29.95 in 8.0 mi South 8.1 mph - N/A   Overcast
11:15 AM 53.6 °F - 48.2 °F 82% 29.95 in 9.0 mi South 4.6 mph - N/A   Overcast
11:35 AM 53.6 °F - 48.2 °F 82% 29.96 in 10.0 mi WSW 5.8 mph - N/A   Overcast
11:55 AM 55.4 °F - 50.0 °F 82% 29.96 in 10.0 mi West 5.8 mph - N/A   Overcast
12:15 PM 57.2 °F - 50.0 °F 77% 29.96 in 9.0 mi SW 4.6 mph - N/A   Overcast
12:35 PM 57.2 °F - 48.2 °F 72% 29.96 in 10.0 mi Calm Calm - N/A   Overcast
12:55 PM 59.0 °F - 48.2 °F 67% 29.95 in 10.0 mi SSW 4.6 mph - N/A   Mostly Cloudy
1:15 PM 59.0 °F - 48.2 °F 67% 29.95 in 10.0 mi SSW 4.6 mph - N/A   Partly Cloudy
1:35 PM 60.8 °F - 48.2 °F 63% 29.94 in 10.0 mi Calm Calm - N/A   Mostly Cloudy
1:55 PM 60.8 °F - 46.4 °F 59% 29.94 in 10.0 mi Calm Calm - N/A   Mostly Cloudy
2:15 PM 62.6 °F - 46.4 °F 55% 29.93 in 10.0 mi NNE 5.8 mph - N/A   Mostly Cloudy
2:35 PM 64.4 °F - 46.4 °F 52% 29.92 in 10.0 mi South 3.5 mph - N/A   Mostly Cloudy
2:55 PM 64.4 °F - 46.4 °F 52% 29.92 in 10.0 mi North 3.5 mph - N/A Thunderstorm Mostly Cloudy
3:15 PM 64.4 °F - 44.6 °F 49% 29.91 in 10.0 mi West 4.6 mph - N/A   Mostly Cloudy
3:35 PM 64.4 °F - 44.6 °F 49% 29.90 in 10.0 mi NW 6.9 mph - N/A   Mostly Cloudy
3:55 PM 64.4 °F - 44.6 °F 49% 29.89 in 10.0 mi East 3.5 mph - N/A Thunderstorm Mostly Cloudy
4:15 PM 64.4 °F - 44.6 °F 49% 29.89 in 10.0 mi Calm Calm - N/A   Mostly Cloudy
4:35 PM 57.2 °F - 46.4 °F 67% 29.91 in 3.0 mi NW 33.4 mph 41.4 mph N/A Rain , Thunderstorm Light Thunderstorms and Rain
4:55 PM 53.6 °F - 48.2 °F 82% 29.94 in 6.0 mi North 9.2 mph - 0.38 in Rain , Thunderstorm Light Rain
5:15 PM 53.6 °F - 50.0 °F 88% 29.93 in 10.0 mi East 6.9 mph - N/A Thunderstorm Thunderstorm
5:35 PM 55.4 °F - 48.2 °F 77% 29.94 in 10.0 mi North 3.5 mph - N/A   Overcast
5:55 PM 55.4 °F - 53.6 °F 94% 29.97 in 10.0 mi WNW 11.5 mph - N/A Thunderstorm Thunderstorm
6:15 PM 53.6 °F - 50.0 °F 88% 29.97 in 2.5 mi WSW 5.8 mph 21.9 mph 0.09 in Rain , Thunderstorm Light Rain
6:35 PM 53.6 °F - 50.0 °F 88% 29.95 in 10.0 mi South 9.2 mph - 0.09 in   Mostly Cloudy
6:55 PM 53.6 °F - 50.0 °F 88% 29.96 in 10.0 mi Calm Calm - 0.09 in   Partly Cloudy
7:15 PM 53.6 °F - 50.0 °F 88% 29.97 in 10.0 mi WSW 3.5 mph - N/A   Clear
7:35 PM 53.6 °F - 50.0 °F 88% 29.99 in 10.0 mi WNW 4.6 mph - N/A   Clear
7:55 PM 53.6 °F - 50.0 °F 88% 30.02 in 10.0 mi North 11.5 mph - N/A   Scattered Clouds
8:15 PM 55.4 °F - 46.4 °F 72% 29.99 in 7.0 mi ENE 6.9 mph - N/A Rain Light Rain
8:55 PM 53.6 °F - 48.2 °F 82% 30.02 in 10.0 mi WSW 11.5 mph - N/A Rain Light Rain
9:15 PM 53.6 °F - 48.2 °F 82% 30.02 in 10.0 mi NNW 3.5 mph - N/A   Mostly Cloudy
9:35 PM 53.6 °F - 48.2 °F 82% 30.05 in 10.0 mi NW 5.8 mph - N/A   Mostly Cloudy
9:55 PM 53.6 °F - 48.2 °F 82% 30.06 in 10.0 mi NNW 6.9 mph - N/A   Mostly Cloudy
10:15 PM 53.6 °F - 48.2 °F 82% 30.06 in 10.0 mi NNW 4.6 mph - N/A   Mostly Cloudy
10:35 PM 51.8 °F - 48.2 °F 88% 30.07 in 10.0 mi NW 6.9 mph - N/A   Overcast
10:55 PM 50.0 °F - 48.2 °F 94% 30.07 in 10.0 mi WSW 3.5 mph - N/A   Mostly Cloudy
11:15 PM 48.2 °F - 48.2 °F 100% 30.08 in 10.0 mi Calm Calm - N/A   Mostly Cloudy
11:35 PM 50.0 °F - 48.2 °F 94% 30.08 in 10.0 mi Calm Calm - N/A   Mostly Cloudy
11:55 PM 50.0 °F - 46.4 °F 87% 30.09 in 10.0 mi Calm Calm - N/A   Mostly Cloudy